| time (UTC) | temp F | wind direction | speed knots | gust knots | rain 1hr in | rain 24hr in | rain mn in | humidity % | barometer mb |
| 20260503055019 | 39 | 0.0 | 0.9 | 0.00 | 0.00 | 0.00 | 72 | 1016.8 | |
| 20260503054019 | 39 | 0.0 | 0.9 | 0.00 | 0.00 | 0.00 | 72 | 1016.7 | |
| 20260503053020 | 39 | 0.0 | 0.0 | 0.00 | 0.00 | 0.00 | 71 | 1016.8 | |
| 20260503052020 | 39 | 0.0 | 0.9 | 0.00 | 0.00 | 0.00 | 70 | 1016.8 | |
| 20260503051019 | 40 | 0.0 | 0.9 | 0.00 | 0.00 | 0.00 | 70 | 1016.8 | |
| 20260503050020 | 39 | 0.0 | 0.9 | 0.00 | 0.00 | 0.00 | 70 | 1016.9 | |
| 20260503045020 | 40 | 0.0 | 0.0 | 0.00 | 0.00 | 0.00 | 70 | 1017.0 | |
| 20260503044019 | 40 | 0.0 | 0.9 | 0.00 | 0.00 | 0.00 | 70 | 1016.9 | |
| 20260503043019 | 40 | 0.0 | 0.0 | 0.00 | 0.00 | 0.00 | 69 | 1016.8 | |
| 20260503042020 | 40 | 0.0 | 0.0 | 0.00 | 0.00 | 0.00 | 68 | 1016.8 | |
| 20260503041020 | 41 | 0.0 | 0.9 | 0.00 | 0.00 | 0.00 | 68 | 1016.8 | |
| 20260503040020 | 41 | 0.0 | 0.0 | 0.00 | 0.00 | 0.00 | 67 | 1016.9 | |
| 20260503035019 | 41 | 0.0 | 0.0 | 0.00 | 0.00 | 0.00 | 66 | 1016.9 | |
| 20260503034041 | 41 | 0.0 | 0.0 | 0.00 | 0.00 | 0.00 | 66 | 1016.9 | |
| 20260503033020 | 42 | 0.0 | 0.0 | 0.00 | 0.00 | 0.00 | 65 | 1016.8 | |
| 20260503032020 | 42 | 0.0 | 0.9 | 0.00 | 0.00 | 0.00 | 65 | 1016.9 | |
| 20260503031018 | 42 | 0.0 | 0.0 | 0.00 | 0.00 | 0.00 | 66 | 1016.9 | |
| 20260503030020 | 42 | 0.0 | 0.0 | 0.00 | 0.00 | 0.00 | 66 | 1017.1 | |
| 20260503025020 | 42 | 0.0 | 0.0 | 0.00 | 0.00 | 0.00 | 64 | 1017.1 | |
| 20260503024020 | 42 | 0.0 | 0.0 | 0.00 | 0.00 | 0.00 | 64 | 1017.1 | |
| 20260503023039 | 42 | 0.0 | 0.0 | 0.00 | 0.00 | 0.00 | 66 | 1017.1 | |
| 20260503022020 | 42 | 0.0 | 0.9 | 0.00 | 0.00 | 0.00 | 67 | 1017.1 | |
| 20260503021020 | 42 | 0.0 | 0.0 | 0.00 | 0.00 | 0.00 | 67 | 1017.1 | |
| 20260503020040 | 43 | 0.0 | 0.0 | 0.00 | 0.00 | 0.00 | 67 | 1017.0 | |
| 20260503015040 | 43 | 0.0 | 0.0 | 0.00 | 0.00 | 0.00 | 69 | 1017.0 | |
| 20260503014020 | 43 | 0.0 | 0.0 | 0.00 | 0.00 | 0.00 | 68 | 1017.0 | |
| 20260503013019 | 43 | 0.0 | 0.0 | 0.00 | 0.00 | 0.00 | 65 | 1016.9 | |
| 20260503012040 | 44 | 0.0 | 0.0 | 0.00 | 0.00 | 0.00 | 61 | 1016.9 | |
| 20260503011040 | 44 | 0.0 | 0.0 | 0.00 | 0.00 | 0.00 | 59 | 1016.8 | |
| 20260503010020 | 44 | 0.0 | 0.0 | 0.00 | 0.00 | 0.00 | 59 | 1016.8 | |
| 20260503005020 | 44 | 0.0 | 0.0 | 0.00 | 0.00 | 0.00 | 60 | 1016.8 | |
| 20260503004020 | 44 | 0.0 | 0.0 | 0.00 | 0.00 | 0.00 | 59 | 1016.8 | |
| 20260503003020 | 45 | 0.0 | 0.0 | 0.00 | 0.00 | 0.00 | 57 | 1016.7 | |
| 20260503002020 | 45 | 0.0 | 0.0 | 0.00 | 0.00 | 0.00 | 56 | 1016.7 | |
| 20260503001020 | 46 | 0.0 | 0.0 | 0.00 | 0.00 | 0.00 | 54 | 1016.5 | |
| 20260503000020 | 46 | 0.0 | 0.9 | 0.00 | 0.00 | 0.00 | 53 | 1016.5 | |
| 20260502235020 | 47 | 0.0 | 0.0 | 0.00 | 0.00 | 0.00 | 53 | 1016.6 | |
| 20260502234041 | 47 | 0.0 | 4.3 | 0.00 | 0.00 | 0.00 | 53 | 1016.6 | |
| 20260502233040 | 47 | 0.0 | 0.0 | 0.00 | 0.00 | 0.00 | 53 | 1016.6 | |
| 20260502232019 | 46 | 0.0 | 0.0 | 0.00 | 0.00 | 0.00 | 54 | 1016.6 | |
| 20260502231020 | 46 | 0.0 | 0.0 | 0.00 | 0.00 | 0.00 | 55 | 1016.6 | |
| 20260502230040 | 46 | 0.0 | 0.0 | 0.00 | 0.00 | 0.00 | 54 | 1016.6 | |
| 20260502225020 | 46 | 0.0 | 0.0 | 0.00 | 0.00 | 0.00 | 55 | 1016.6 | |
| 20260502224021 | 46 | 0.0 | 0.9 | 0.00 | 0.00 | 0.00 | 56 | 1016.7 | |
| 20260502223020 | 46 | 0.0 | 0.9 | 0.00 | 0.00 | 0.00 | 56 | 1016.7 | |
| 20260502222020 | 46 | 315 | 0.9 | 7.8 | 0.00 | 0.00 | 0.00 | 55 | 1016.8 |
| 20260502221020 | 46 | 0.0 | 2.6 | 0.00 | 0.00 | 0.00 | 56 | 1016.8 | |
| 20260502220020 | 46 | 0.0 | 0.0 | 0.00 | 0.00 | 0.00 | 55 | 1016.7 | |
| 20260502215020 | 46 | 0.0 | 0.0 | 0.00 | 0.00 | 0.00 | 56 | 1016.7 | |
| 20260502214019 | 46 | 0.0 | 0.9 | 0.00 | 0.00 | 0.00 | 55 | 1016.6 | |
| 20260502213021 | 45 | 0.0 | 0.9 | 0.00 | 0.00 | 0.00 | 56 | 1016.5 | |
| 20260502212019 | 45 | 0.0 | 0.9 | 0.00 | 0.00 | 0.00 | 58 | 1016.6 | |
| 20260502211020 | 45 | 0.0 | 0.9 | 0.00 | 0.00 | 0.00 | 57 | 1016.5 | |
| 20260502210020 | 45 | 0.0 | 0.9 | 0.00 | 0.00 | 0.00 | 57 | 1016.6 | |
| 20260502205020 | 45 | 315 | 3.5 | 8.7 | 0.00 | 0.00 | 0.00 | 56 | 1016.6 |
| 20260502204019 | 45 | 293 | 0.9 | 9.6 | 0.00 | 0.00 | 0.00 | 54 | 1016.6 |
| 20260502203020 | 45 | 0.0 | 2.6 | 0.00 | 0.00 | 0.00 | 56 | 1016.8 | |
| 20260502202020 | 46 | 0.0 | 0.0 | 0.00 | 0.00 | 0.00 | 56 | 1016.7 | |
| 20260502201019 | 46 | 0.0 | 7.8 | 0.00 | 0.00 | 0.00 | 57 | 1016.8 | |
| 20260502200020 | 46 | 0.0 | 8.7 | 0.00 | 0.00 | 0.00 | 55 | 1016.9 | |
| 20260502195019 | 46 | 0.0 | 0.0 | 0.00 | 0.00 | 0.00 | 55 | 1016.9 | |
| 20260502194020 | 45 | 293 | 2.6 | 11.3 | 0.00 | 0.00 | 0.00 | 58 | 1016.9 |
| 20260502193040 | 45 | 0.0 | 0.0 | 0.00 | 0.00 | 0.00 | 56 | 1016.9 | |
| 20260502192020 | 45 | 0.0 | 0.0 | 0.00 | 0.00 | 0.00 | 55 | 1017.0 | |
| 20260502191020 | 45 | 0.0 | 0.0 | 0.00 | 0.00 | 0.00 | 57 | 1017.0 | |
| 20260502190019 | 45 | 0.0 | 6.1 | 0.00 | 0.00 | 0.00 | 56 | 1017.1 | |
| 20260502185020 | 45 | 315 | 1.7 | 8.7 | 0.00 | 0.00 | 0.00 | 58 | 1017.2 |
| 20260502184020 | 45 | 315 | 1.7 | 7.8 | 0.00 | 0.00 | 0.00 | 56 | 1017.2 |
| 20260502183019 | 45 | 315 | 0.9 | 8.7 | 0.00 | 0.00 | 0.00 | 56 | 1017.3 |
| 20260502182020 | 45 | 338 | 3.5 | 9.6 | 0.00 | 0.00 | 0.00 | 54 | 1017.3 |
| 20260502181019 | 45 | 338 | 0.9 | 9.6 | 0.00 | 0.00 | 0.00 | 55 | 1017.3 |
| 20260502164020 | 44 | 0.0 | 0.0 | 0.00 | 0.00 | 0.00 | 60 | 1018.0 | |
| 20260502163020 | 44 | 293 | 0.9 | 7.8 | 0.00 | 0.00 | 0.00 | 60 | 1018.2 |
| 20260502162019 | 43 | 0.0 | 0.0 | 0.00 | 0.00 | 0.00 | 62 | 1018.2 | |
| 20260502161039 | 43 | 0.0 | 0.9 | 0.00 | 0.00 | 0.00 | 61 | 1018.3 | |
| 20260502152019 | 42 | 0.0 | 0.0 | 0.00 | 0.00 | 0.00 | 67 | 1018.2 | |
| 20260502151020 | 41 | 315 | 1.7 | 8.7 | 0.00 | 0.00 | 0.00 | 66 | 1018.1 |
| 20260502123039 | 36 | 0.0 | 0.0 | 0.00 | 0.00 | 0.00 | 83 | 1017.1 | |
| 20260502122019 | 35 | 0.0 | 0.0 | 0.00 | 0.00 | 0.00 | 83 | 1016.9 | |
| 20260502121019 | 35 | 0.0 | 0.0 | 0.00 | 0.00 | 0.00 | 84 | 1016.8 | |
| 20260502115539 | 34 | 0.0 | 0.9 | 0.00 | 0.00 | 0.00 | 84 | 1016.8 | |
| 20260502114519 | 34 | 0.0 | 0.0 | 0.00 | 0.00 | 0.00 | 85 | 1016.8 | |
| 20260502113520 | 33 | 0.0 | 0.0 | 0.00 | 0.00 | 0.00 | 86 | 1016.9 | |
| 20260502112520 | 33 | 0.0 | 0.0 | 0.00 | 0.00 | 0.00 | 86 | 1016.9 | |
| 20260502111519 | 33 | 0.0 | 0.0 | 0.00 | 0.00 | 0.00 | 86 | 1016.8 | |
| 20260502110520 | 33 | 0.0 | 0.0 | 0.00 | 0.00 | 0.00 | 86 | 1016.7 | |
| 20260502105519 | 33 | 0.0 | 0.0 | 0.00 | 0.00 | 0.00 | 86 | 1016.6 | |
| 20260502104519 | 33 | 0.0 | 0.0 | 0.00 | 0.00 | 0.00 | 85 | 1016.6 | |
| 20260502103520 | 33 | 0.0 | 0.0 | 0.00 | 0.00 | 0.00 | 85 | 1016.6 | |
| 20260502102519 | 33 | 0.0 | 0.0 | 0.00 | 0.00 | 0.00 | 85 | 1016.4 | |
| 20260502101520 | 33 | 0.0 | 0.0 | 0.00 | 0.00 | 0.00 | 85 | 1016.5 | |
| 20260502100519 | 33 | 0.0 | 0.0 | 0.00 | 0.00 | 0.00 | 84 | 1016.5 | |
| 20260502091519 | 34 | 0.0 | 0.0 | 0.00 | 0.00 | 0.00 | 82 | 1016.5 | |
| 20260502090520 | 34 | 0.0 | 0.9 | 0.00 | 0.00 | 0.00 | 82 | 1016.5 | |
| 20260502071519 | 36 | 0.0 | 0.0 | 0.00 | 0.00 | 0.00 | 80 | 1016.2 | |
| 20260502070519 | 36 | 0.0 | 0.9 | 0.00 | 0.00 | 0.00 | 80 | 1016.1 | |
| 20260502065519 | 37 | 0.0 | 3.5 | 0.00 | 0.00 | 0.00 | 79 | 1016.3 | |
| 20260502064520 | 37 | 0.0 | 0.9 | 0.00 | 0.00 | 0.00 | 78 | 1016.3 | |
| 20260502063520 | 37 | 0.0 | 0.9 | 0.00 | 0.00 | 0.00 | 78 | 1016.4 |